Location: Azenweiler
(47.8027°N, 9.4096°E)
Time: 02:35:51
(UTC+00:00)

Cosmos 1626 Rocket - Pass Details

Date: 14 March 2026
Orbit: 596 x 624 km, 82.5° (Epoch: 13 April)

Event Time Altitude Azimuth Distance (km) Brightness Sun altitude
Rises 18:42:58 0° 237° (WSW) 2,899 7.7 -13.6°
Reaches altitude 10° 18:46:08 10° 261° (W) 1,999 7.3 -14.2°
Maximum altitude 18:48:37 15° 296° (WNW) 1,716 7.0 -14.6°
Drops below altitude 10° 18:51:06 10° 330° (NNW) 2,006 6.8 -15.0°
Sets 18:54:18 0° 354° (N) 2,916 7.3 -15.5°
